Regional Weather Roundup
Issued by NWS Green Bay, WI

Home | Current Version | Previous Version | Graphics & Text | Print | Product List | Glossary Off
Versions: 1 2 3 4 5 6 7 8 9 10 11 12 13 14 15 16 17 18 19 20 21 22 23 24 25 26 27 28 29 30 31 32 33 34 35 36 37 38 39 40 41 42 43 44 45 46 47 48 49 50

000
ASUS43 KGRB 301901
RWRGRB

NORTH-CENTRAL AND NORTHEAST WISCONSIN REGIONAL WEATHER ROUNDUP
NATIONAL WEATHER SERVICE GREEN BAY WI
200 PM CDT TUE JUN 30 2015

WIZ005-009-010>012-018-019-302000-
NORTH CENTRAL WISCONSIN

CITY           SKY/WX    TMP DP  RH WIND       PRES   REMARKS
IRONWOOD       CLOUDY    54  48  82 N10       29.96S
MANITOWISH WTR NOT AVBL
ARBOR VITAE    NOT AVBL
EAGLE RIVER    NOT AVBL
LAND O LAKES   NOT AVBL
RHINELANDER    CLOUDY    59  51  75 NW8       29.94S
PHILLIPS       NOT AVBL
ANTIGO         NOT AVBL
TOMAHAWK       NOT AVBL
MERRILL        NOT AVBL
$$

WIZ013-073-302000-
NORTHEAST WISCONSIN

CITY           SKY/WX    TMP DP  RH WIND       PRES   REMARKS
IRON MOUNTAIN  CLOUDY    59  49  69 N16       29.89S
MARINETTE      CLOUDY    64  54  68 N12       29.84F
$$

WIZ017-030-035>037-045-302000-
CENTRAL WISCONSIN

CITY           SKY/WX    TMP DP  RH WIND       PRES   REMARKS
MEDFORD        NOT AVBL
WAUSAU         PTSUNNY   66  52  60 N8G20     29.89S
MOSINEE        NOT AVBL
MARSHFIELD     CLOUDY    69  52  54 N17       29.90S
WISC RAPIDS    PTSUNNY   72  52  49 N12G17    29.89F
STEVENS POINT  NOT AVBL
WAUPACA        NOT AVBL
SHAWANO        NOT AVBL
CLINTONVILLE   NOT AVBL
$$

WIZ038-039-048-051-302000-
FOX VALLEY

CITY           SKY/WX    TMP DP  RH WIND       PRES   REMARKS
NWS GREEN BAY  CLOUDY    68  58  70 N7        29.85F
APPLETON       PTSUNNY   66  54  63 N10       29.86S
OSHKOSH        PTSUNNY   73  58  59 N15G22    29.84S
FOND DU LAC    PTSUNNY   73  59  61 N13       29.84F
$$

WIZ022-050-052-302000-
EAST CENTRAL WISCONSIN

CITY           SKY/WX    TMP DP  RH WIND       PRES   REMARKS
STURGEON BAY   CLOUDY    63  54  72 N10       29.87F
MANITOWOC      CLOUDY    66  57  72 MISG      29.84F
SHEBOYGAN      CLOUDY    66  59  78 NE9       29.83F
$$

LMZ563-521-522-541>543-302000-
LAKESHORE

STATION/POSITION TIME  TEMP    WIND        PRES    VSBY  WAVE
                       AIR SEA DIR/SP/G                  HT/PER
                 (UTC) (F)     (DEG/KT/KT) (MB)    (MI)  (FT/S)
SHEBOYGAN LKSHOR 1800   60      30/ 18/ 20 1010.6R
KEWAUNEE LKSHORE 1800   61      10/  6/ 10 1010.4R
ALGOMA MARINA    1810          360/ 10/ 12   N/A
NORTHPORT PIER   1800   56     350/ 15/ 17 1011.2S
N MID LAKE BUOY  1750   49 45  320/ 14/ 16 1010.4R         2/ 4
CHAMBERS ISLAND  1800   62     340/  9/ 13 1011.2R
MENOMINEE LKSHOR 1800   62      20/  8/ 10 1011.6R
$$


USA.gov is the U.S. government's official web portal to all federal, state and local government web resources and services.